User: anonymous   Login
Location: Dannhausen
(51.8650°N, 10.1026°E)
Time: 17:30:45
(UTC+00:00)
Language:

Sich 1 - Orbit

View from above orbital plane
View from above orbital plane
View from above satellite
View from above satellite

Ground track
Ground track

The orbit data is extracted from the following two-line orbital elements,

1 23657U 95046A   20195.77129333 +.00000094 +00000-0 +79239-5 0  9997
2 23657 082.5278 285.9349 0021155 328.6297 031.3656 14.86166858343881
Epoch (UTC): 13 July 2020 18:30:39
Eccentricity: 0.0021155
inclination: 82.5278°
perigee height: 595 km
apogee height: 625 km
right ascension of ascending node: 285.9349°
argument of perigee: 328.6297°
revolutions per day: 14.86166858
mean anomaly at epoch: 31.3656°
orbit number at epoch: 34388

The dashed part of the orbit path shows where the satellite is in the earth's shadow,  

DLR